TimeMDT,TemperatureF,Dew PointF,Humidity,Sea Level PressureIn,VisibilityMPH,Wind Direction,Wind SpeedMPH,Gust SpeedMPH,PrecipitationIn,Events,Conditions,WindDirDegrees,DateUTC
12:53 AM,41.0,27.0,57,30.02,10.0,East,5.8,-,N/A,,Clear,90,2014-05-16 06:53:00
1:53 AM,39.2,26.6,61,30.20,10.0,East,4.6,-,N/A,,Clear,80,2014-05-16 07:53:00
2:53 AM,36.0,27.0,70,30.00,10.0,ENE,9.2,-,N/A,,Clear,60,2014-05-16 08:53:00
3:53 AM,35.1,27.0,72,29.99,10.0,ENE,10.4,-,N/A,,Clear,60,2014-05-16 09:53:00
4:53 AM,33.1,26.1,75,30.00,10.0,North,5.8,-,N/A,,Clear,10,2014-05-16 10:53:00
5:53 AM,32.0,27.0,82,30.01,10.0,East,3.5,-,N/A,,Clear,90,2014-05-16 11:53:00
6:53 AM,36.0,28.9,76,30.01,10.0,East,4.6,-,N/A,,Clear,90,2014-05-16 12:53:00
7:53 AM,43.0,30.9,62,30.00,10.0,East,6.9,-,N/A,,Clear,90,2014-05-16 13:53:00
8:53 AM,50.0,32.0,50,30.00,10.0,East,4.6,-,N/A,,Partly Cloudy,100,2014-05-16 14:53:00
9:53 AM,57.9,28.0,32,30.01,10.0,NNW,17.3,27.6,N/A,,Mostly Cloudy,330,2014-05-16 15:53:00
10:53 AM,57.9,30.9,36,30.01,10.0,NW,16.1,23.0,N/A,,Partly Cloudy,310,2014-05-16 16:53:00
11:53 AM,64.0,30.0,28,29.98,10.0,North,10.4,21.9,N/A,,Clear,350,2014-05-16 17:53:00
12:53 PM,61.0,30.0,31,29.99,10.0,WNW,19.6,-,N/A,,Scattered Clouds,300,2014-05-16 18:53:00
1:53 PM,60.8,28.4,29,30.17,10.0,NNW,25.3,31.1,N/A,,Mostly Cloudy,340,2014-05-16 19:53:00
2:53 PM,62.1,32.0,32,30.00,10.0,North,27.6,35.7,N/A,,Partly Cloudy,350,2014-05-16 20:53:00
3:53 PM,64.0,30.0,28,29.98,10.0,North,20.7,28.8,N/A,,Partly Cloudy,350,2014-05-16 21:53:00
4:53 PM,62.1,30.9,31,29.98,10.0,NNW,16.1,-,N/A,,Clear,340,2014-05-16 22:53:00
5:53 PM,61.0,30.9,32,29.97,10.0,North,12.7,-,N/A,,Mostly Cloudy,10,2014-05-16 23:53:00
6:51 PM,51.8,37.4,58,30.13,9.0,West,23.0,38.0,N/A,Thunderstorm,Overcast,260,2014-05-17 00:51:00
6:53 PM,50.0,39.0,66,30.01,9.0,WSW,29.9,38.0,0.00,Rain-Thunderstorm,Light Rain,250,2014-05-17 00:53:00
7:04 PM,48.0,39.0,71,30.13,10.0,WSW,25.3,40.3,0.00,Thunderstorm,Overcast,250,2014-05-17 01:04:00
7:20 PM,48.9,37.9,66,30.11,10.0,South,17.3,33.4,0.00,,Mostly Cloudy,190,2014-05-17 01:20:00
7:53 PM,46.9,37.9,71,30.06,10.0,NW,35.7,59.8,0.00,,Squalls,310,2014-05-17 01:53:00
8:01 PM,44.1,39.0,82,30.20,1.8,WNW,32.2,51.8,0.02,Rain,Rain,300,2014-05-17 02:01:00
8:11 PM,44.1,39.0,82,30.20,4.0,NW,21.9,39.1,0.05,Rain,Rain,310,2014-05-17 02:11:00
8:32 PM,44.1,39.0,82,30.14,10.0,NNE,32.2,38.0,0.06,Rain,Light Rain,20,2014-05-17 02:32:00
8:53 PM,46.9,39.0,74,29.94,10.0,NE,18.4,38.0,0.06,,Overcast,40,2014-05-17 02:53:00
9:53 PM,45.0,39.9,82,29.95,10.0,North,8.1,-,N/A,,Overcast,350,2014-05-17 03:53:00
10:53 PM,45.0,39.9,82,29.97,10.0,North,18.4,-,N/A,,Overcast,360,2014-05-17 04:53:00
11:53 PM,43.0,39.0,86,29.92,10.0,NNW,5.8,-,0.01,,Mostly Cloudy,340,2014-05-17 05:53:00